1486731600.32,13829,10.81,73824.0,-5.27,-8.89,-8.89,0,*51
1486731601.55,13830,10.81,73824.8,-5.27,-8.97,-8.89,0,*56
1486731602.77,13831,10.81,73828.8,-5.27,-8.85,-8.75,0,*57
1486731603.99,13832,10.81,73826.0,-5.27,-8.59,-8.55,0,*57
1486731605.21,13833,10.81,73826.8,-5.27,-8.59,-8.45,0,*57
1486731606.44,13834,10.81,73824.8,-5.27,-8.85,-8.75,0,*52
1486731607.66,13835,10.81,73834.3,-5.27,-8.59,-8.45,0,*51
1486731608.89,13836,10.81,73832.5,-5.27,-8.55,-8.45,0,*5E
1486731610.12,13837,10.81,73832.3,-5.27,-9.01,-8.97,0,*50
1486731611.34,13838,10.81,73834.5,-5.27,-8.59,-8.45,0,*5C
1486731612.56,13839,10.81,73834.5,-5.27,-8.21,-8.17,0,*55
1486731613.78,13840,10.81,73830.0,-5.27,-8.41,-8.41,0,*5E
1486731615.0,13841,10.81,73832.0,-5.27,-8.75,-8.75,0,*5F
1486731616.19,13842,10.81,73830.5,-5.25,-8.59,-8.55,0,*52
1486731617.41,13843,10.81,73824.3,-5.27,-8.45,-8.33,0,*5C
1486731618.61,13844,10.81,73824.8,-5.25,-8.45,-8.41,0,*5C
1486731619.81,13845,10.81,73828.8,-5.25,-8.41,-8.33,0,*5C
1486731621.03,13846,10.81,73826.0,-5.27,-8.45,-8.41,0,*5C
1486731622.23,13847,10.81,73828.0,-5.25,-8.59,-8.45,0,*56
1486731623.43,13848,10.81,73828.8,-5.25,-8.45,-8.41,0,*50
1486731624.63,13849,10.81,73832.8,-5.25,-8.55,-8.45,0,*54
1486731625.87,13850,10.81,73828.5,-5.27,-8.85,-8.85,0,*5F
1486731627.1,13851,10.81,73830.8,-5.27,-9.01,-8.97,0,*50
1486731628.38,13852,10.81,73828.3,-5.27,-9.11,-9.11,0,*5D
1486731629.61,13853,10.81,73834.3,-5.27,-8.89,-8.97,0,*53
1486731630.86,13854,10.81,73830.3,-5.27,-9.11,-9.01,0,*5A
1486731632.09,13855,10.81,73830.3,-5.27,-9.01,-8.97,0,*54
1486731633.31,13856,10.81,73830.3,-5.29,-8.89,-8.89,0,*57
1486731634.51,13857,10.81,73834.8,-5.29,-8.63,-8.59,0,*5F
1486731635.71,13858,10.81,73832.5,-5.29,-8.63,-8.59,0,*50
1486731636.91,13859,10.81,73832.0,-5.29,-8.75,-8.75,0,*58
1486731638.14,13860,10.81,73834.3,-5.29,-8.51,-8.45,0,*57
1486731639.36,13861,10.81,73836.8,-5.29,-8.59,-8.51,0,*5B
1486731640.59,13862,10.81,73834.0,-5.27,-8.41,-8.41,0,*5E
1486731641.81,13863,10.81,73832.5,-5.27,-8.75,-8.75,0,*5F
1486731643.03,13864,10.81,73838.5,-5.27,-8.55,-8.41,0,*5D
1486731644.25,13865,10.81,73834.3,-5.27,-8.71,-8.59,0,*53
1486731645.48,13866,10.81,73832.8,-5.27,-8.59,-8.45,0,*57
1486731646.7,13867,10.81,73828.8,-5.27,-8.67,-8.45,0,*5B
1486731647.91,13868,10.81,73828.3,-5.27,-8.67,-8.55,0,*55
1486731649.14,13869,10.81,73830.8,-5.27,-8.71,-8.71,0,*55
1486731650.36,13870,10.81,73832.0,-5.27,-8.45,-8.33,0,*5C
1486731651.58,13871,10.81,73832.5,-5.27,-8.41,-8.29,0,*52
1486731652.78,13872,10.81,73838.3,-5.25,-8.41,-8.29,0,*53
1486731653.98,13873,10.81,73834.3,-5.25,-8.55,-8.45,0,*5D
1486731655.21,13874,10.81,73836.3,-5.27,-8.71,-8.55,0,*5F
1486731656.42,13875,10.81,73838.0,-5.27,-8.33,-8.33,0,*58
1486731657.61,13876,10.81,73832.5,-5.25,-8.33,-8.21,0,*5A
1486731658.83,13877,10.81,73828.5,-5.27,-8.29,-8.29,0,*5A
1486731660.03,13878,10.81,73830.5,-5.25,-8.41,-8.41,0,*57
1486731661.23,13879,10.81,73824.0,-5.25,-8.97,-9.01,0,*58
1486731662.46,13880,10.81,73826.0,-5.27,-8.97,-9.01,0,*5C
1486731663.69,13881,10.81,73824.3,-5.27,-8.85,-8.89,0,*5F
1486731664.92,13882,10.81,73820.8,-5.27,-8.71,-8.75,0,*54
1486731666.15,13883,10.81,73820.8,-5.27,-8.85,-8.85,0,*51
1486731667.35,13884,10.81,73820.0,-5.25,-8.67,-8.71,0,*53
1486731668.57,13885,10.81,73826.3,-5.27,-8.75,-8.75,0,*57
1486731669.78,13886,10.81,73826.3,-5.25,-9.01,-9.01,0,*56
1486731670.99,13887,10.81,73822.3,-5.27,-8.67,-8.71,0,*52
1486731672.19,13888,10.81,73824.0,-5.29,-8.59,-8.59,0,*54
1486731673.41,13889,10.81,73826.5,-5.27,-8.41,-8.29,0,*55
1486731674.64,13890,10.81,73826.0,-5.27,-8.45,-8.41,0,*57
1486731675.88,13891,10.81,73830.5,-5.29,-8.81,-8.81,0,*5C
1486731677.09,13892,10.81,73832.0,-5.29,-8.45,-8.37,0,*5A
1486731678.3,13893,10.81,73836.8,-5.29,-8.25,-8.21,0,*5A
1486731679.51,13894,10.81,73832.3,-5.27,-8.33,-8.33,0,*57
1486731680.73,13895,10.81,73832.0,-5.27,-8.41,-8.33,0,*53
1486731681.93,13896,10.81,73828.0,-5.25,-8.75,-8.85,0,*58
1486731683.15,13897,10.81,73826.0,-5.27,-8.67,-8.71,0,*53
1486731684.37,13898,10.81,73822.5,-5.27,-8.55,-8.55,0,*5B
1486731685.58,13899,10.81,73824.3,-5.27,-8.67,-8.55,0,*5B
1486731686.81,13900,10.81,73824.8,-5.27,-8.89,-8.97,0,*54
1486731688.04,13901,10.81,73828.8,-5.27,-8.85,-8.85,0,*5A
1486731689.32,13902,10.81,73834.5,-5.27,-9.11,-9.11,0,*59
1486731690.53,13903,10.81,73832.5,-5.29,-9.27,-9.27,0,*56
1486731691.79,13904,10.81,73828.3,-5.31,-9.15,-9.05,0,*59
1486731693.02,13905,10.81,73828.0,-5.31,-9.01,-8.93,0,*53
1486731694.28,13906,10.81,73828.3,-5.31,-9.15,-9.19,0,*56
1486731695.53,13907,10.81,73828.3,-5.31,-8.81,-8.75,0,*50
1486731696.75,13908,10.81,73830.0,-5.31,-8.63,-8.63,0,*54
1486731697.99,13909,10.81,73834.5,-5.31,-8.81,-8.75,0,*5E
1486731699.21,13910,10.81,73834.8,-5.33,-8.97,-8.93,0,*5B
1486731700.43,13911,10.81,73838.8,-5.33,-9.05,-8.97,0,*54
1486731701.69,13912,10.81,73838.3,-5.33,-8.81,-8.81,0,*5D
1486731702.91,13913,10.81,73832.0,-5.33,-8.67,-8.63,0,*58
1486731704.14,13914,10.81,73838.0,-5.33,-8.81,-8.67,0,*53
1486731705.39,13915,10.81,73836.8,-5.33,-8.51,-8.41,0,*5B
1486731706.61,13916,10.81,73838.0,-5.33,-8.41,-8.37,0,*58
1486731707.83,13917,10.81,73838.3,-5.33,-8.37,-8.37,0,*58
1486731709.06,13918,10.81,73834.8,-5.35,-8.55,-8.51,0,*55
1486731710.3,13919,10.81,73838.0,-5.33,-8.55,-8.51,0,*52
1486731711.52,13920,10.81,73838.3,-5.31,-8.33,-8.33,0,*5E
1486731712.79,13921,10.81,73834.0,-5.31,-8.11,-7.99,0,*50
1486731714.02,13922,10.81,73828.5,-5.31,-8.25,-8.21,0,*58
1486731715.25,13923,10.81,73834.8,-5.31,-8.37,-8.33,0,*59
1486731716.47,13924,10.81,73832.3,-5.31,-8.45,-8.45,0,*5A
1486731717.71,13925,10.81,73832.3,-5.31,-8.37,-8.37,0,*5B
1486731718.94,13926,10.81,73832.5,-5.29,-8.21,-8.11,0,*52
1486731720.19,13927,10.81,73834.8,-5.31,-8.21,-8.07,0,*5D
1486731721.45,13928,10.81,73834.8,-5.29,-8.11,-7.99,0,*50
1486731722.7,13929,10.81,73832.3,-5.29,-8.07,-7.99,0,*56
1486731723.95,13930,10.81,73832.0,-5.27,-8.17,-8.03,0,*5D
1486731725.17,13931,10.81,73836.5,-5.27,-8.41,-8.33,0,*5C
1486731726.39,13932,10.81,73832.8,-5.27,-8.21,-8.17,0,*5F
1486731727.6,13933,10.81,73832.5,-5.27,-8.33,-8.29,0,*50
1486731728.82,13934,10.81,73830.8,-5.27,-8.29,-8.29,0,*5C
1486731730.03,13935,10.81,73828.0,-5.27,-8.33,-8.29,0,*56
1486731731.25,13936,10.81,73830.8,-5.27,-8.21,-8.17,0,*5B
1486731732.47,13937,10.81,73830.3,-5.27,-8.41,-8.33,0,*5A
1486731733.69,13938,10.81,73832.8,-5.27,-8.29,-8.21,0,*58
1486731734.95,13939,10.81,73834.3,-5.27,-8.17,-8.07,0,*50
1486731736.17,13940,10.81,73832.3,-5.27,-8.33,-8.21,0,*5C
1486731737.37,13941,10.81,73836.8,-5.25,-8.17,-8.17,0,*5C
1486731738.59,13942,10.81,73842.5,-5.27,-8.29,-8.29,0,*5D
1486731739.81,13943,10.81,73840.5,-5.27,-8.41,-8.29,0,*52
1486731741.03,13944,10.81,73836.3,-5.27,-8.21,-8.17,0,*5E
1486731742.25,13945,10.81,73836.0,-5.27,-8.59,-8.59,0,*5A
1486731743.45,13946,10.81,73836.5,-5.25,-8.59,-8.45,0,*56
1486731744.67,13947,10.81,73836.3,-5.27,-8.45,-8.33,0,*59
1486731745.86,13948,10.81,73842.0,-5.25,-8.33,-8.29,0,*5E
1486731747.05,13949,10.81,73842.0,-5.25,-8.41,-8.33,0,*51
1486731748.27,13950,10.81,73840.5,-5.25,-8.29,-8.03,0,*54
1486731749.5,13951,10.81,73840.5,-5.25,-8.21,-8.07,0,*59
1486731750.72,13952,10.81,73838.8,-5.25,-8.17,-8.03,0,*5B
1486731751.97,13953,10.81,73844.3,-5.25,-8.03,-7.91,0,*5B
1486731753.17,13954,10.81,73840.8,-5.25,-8.17,-8.17,0,*58
1486731754.36,13955,10.81,73842.5,-5.25,-8.21,-8.17,0,*5C
1486731755.56,13956,10.81,73842.3,-5.25,-8.33,-8.41,0,*5F
1486731756.76,13957,10.81,73842.0,-5.25,-8.45,-8.41,0,*5F
1486731757.95,13958,10.81,73838.5,-5.25,-8.33,-8.29,0,*5F
1486731759.18,13959,10.81,73840.3,-5.21,-8.55,-8.51,0,*55
1486731760.38,13960,10.81,73832.5,-5.21,-8.41,-8.37,0,*5A
1486731761.57,13961,10.81,73832.8,-5.21,-8.63,-8.67,0,*5E
1486731762.77,13962,10.81,73834.5,-5.25,-8.75,-8.71,0,*59
1486731763.97,13963,10.81,73832.5,-5.25,-8.97,-8.89,0,*53
1486731765.17,13964,10.81,73834.3,-5.25,-8.75,-8.71,0,*5F
1486731766.4,13965,10.81,73826.8,-5.27,-8.85,-8.89,0,*54
1486731767.61,13966,10.81,73826.0,-5.25,-8.89,-8.85,0,*55
1486731768.82,13967,10.81,73828.3,-5.25,-8.97,-8.89,0,*57
1486731770.02,13968,10.81,73830.5,-5.25,-8.89,-8.89,0,*57
1486731771.26,13969,10.81,73830.0,-5.27,-8.85,-8.85,0,*54
1486731772.47,13970,10.81,73834.3,-5.27,-8.59,-8.55,0,*50
1486731773.7,13971,10.81,73832.8,-5.27,-8.75,-8.85,0,*52
1486731774.94,13972,10.81,73830.8,-5.29,-8.81,-8.81,0,*50
1486731776.17,13973,10.81,73830.8,-5.27,-8.55,-8.45,0,*5E
1486731777.39,13974,10.81,73834.8,-5.27,-8.33,-8.21,0,*5B
1486731778.61,13975,10.81,73832.5,-5.27,-8.17,-8.17,0,*59
1486731779.87,13976,10.81,73832.3,-5.27,-8.17,-8.07,0,*5B
1486731781.15,13977,10.81,73834.3,-5.27,-8.07,-8.07,0,*5B
1486731782.37,13978,10.81,73832.0,-5.27,-8.41,-8.29,0,*5A
1486731783.64,13979,10.81,73830.8,-5.27,-7.95,-7.91,0,*51
1486731784.86,13980,10.81,73832.3,-5.27,-8.29,-8.17,0,*5E
1486731786.06,13981,10.81,73836.8,-5.25,-8.59,-8.41,0,*59
1486731787.28,13982,10.81,73838.8,-5.27,-8.41,-8.33,0,*54
1486731788.5,13983,10.81,73838.5,-5.27,-8.41,-8.41,0,*50
1486731789.73,13984,10.81,73834.5,-5.27,-8.55,-8.45,0,*56
1486731790.94,13985,10.81,73828.8,-5.27,-8.33,-8.17,0,*50
1486731792.16,13986,10.81,73832.3,-5.27,-8.41,-8.33,0,*50
1486731793.39,13987,10.81,73826.5,-5.25,-9.11,-9.23,0,*57
1486731794.62,13988,10.81,73824.8,-5.27,-8.97,-9.01,0,*55
1486731795.85,13989,10.81,73826.0,-5.27,-9.01,-8.97,0,*54
1486731797.05,13990,10.81,73828.5,-5.29,-9.19,-9.19,0,*5C
1486731798.33,13991,10.81,73828.3,-5.31,-9.15,-9.15,0,*54
1486731799.6,13992,10.81,73826.0,-5.31,-9.15,-9.05,0,*56
1486731800.81,13993,10.81,73826.8,-5.29,-9.01,-9.01,0,*5F
1486731802.04,13994,10.81,73824.5,-5.31,-9.05,-9.05,0,*51
1486731803.27,13995,10.81,73816.5,-5.31,-8.93,-8.93,0,*50
1486731804.53,13996,10.81,73816.5,-5.31,-8.89,-8.81,0,*5B
1486731805.76,13997,10.81,73808.3,-5.31,-8.93,-8.93,0,*52
1486731806.98,13998,10.81,73804.3,-5.33,-8.93,-8.97,0,*5B
1486731808.2,13999,10.81,73818.0,-5.33,-8.97,-8.97,0,*5E
1486731809.43,14000,10.81,73816.3,-5.35,-9.11,-8.97,0,*59
1486731810.62,14001,10.81,73820.0,-5.35,-9.05,-9.05,0,*57
1486731811.81,14002,10.81,73816.3,-5.35,-8.67,-8.63,0,*50
1486731813.0,14003,10.81,73816.0,-5.35,-8.67,-8.67,0,*55
1486731814.23,14004,10.81,73816.3,-5.35,-8.81,-8.81,0,*52
1486731815.43,14005,10.81,73812.5,-5.39,-8.71,-8.59,0,*55
1486731816.65,14006,10.81,73814.8,-5.33,-8.41,-8.37,0,*57
1486731817.87,14007,10.81,73820.5,-5.35,-8.51,-8.41,0,*50
1486731819.06,14008,10.81,73820.5,-5.35,-8.29,-8.25,0,*52
1486731820.28,14009,10.81,73824.0,-5.35,-8.17,-7.99,0,*56
1486731821.48,14010,10.81,73826.5,-5.35,-8.37,-8.25,0,*54
1486731822.7,14011,10.81,73830.5,-5.33,-8.41,-8.29,0,*5E
1486731823.9,14012,10.81,73832.0,-5.35,-8.41,-8.37,0,*54
1486731825.09,14013,10.81,73834.5,-5.35,-8.63,-8.55,0,*51
1486731826.31,14014,10.81,73834.0,-5.35,-8.51,-8.37,0,*53
1486731827.51,14015,10.81,73834.5,-5.35,-8.37,-8.37,0,*52
1486731828.73,14016,10.81,73836.5,-5.33,-8.29,-8.25,0,*5B
1486731829.92,14017,10.81,73838.8,-5.35,-8.37,-8.25,0,*53
1486731831.16,14018,10.81,73828.8,-5.33,-8.03,-7.87,0,*5A
1486731832.36,14019,10.81,73838.0,-5.35,-8.41,-8.29,0,*50
1486731833.57,14020,10.81,73832.8,-5.33,-8.29,-8.17,0,*5F
1486731834.82,14021,10.81,73836.8,-5.33,-8.25,-8.11,0,*54
1486731836.04,14022,10.81,73832.5,-5.35,-8.17,-7.99,0,*5F
1486731837.31,14023,10.81,73834.0,-5.33,-8.11,-7.99,0,*5E
1486731838.55,14024,10.81,73834.3,-5.33,-8.17,-8.03,0,*53
1486731839.79,14025,10.81,73832.8,-5.33,-8.17,-7.99,0,*5E
1486731841.07,14026,10.81,73836.8,-5.31,-7.99,-7.99,0,*56
1486731842.29,14027,10.81,73830.8,-5.31,-8.33,-8.21,0,*54
1486731843.52,14028,10.81,73830.3,-5.31,-8.25,-8.21,0,*5C
1486731844.72,14029,10.81,73832.8,-5.29,-8.37,-8.25,0,*53
1486731845.98,14030,10.81,73834.3,-5.31,-8.21,-8.07,0,*55
1486731847.21,14031,10.81,73832.3,-5.29,-7.95,-7.83,0,*5E
1486731848.44,14032,10.81,73832.0,-5.31,-8.45,-8.37,0,*56
1486731849.64,14033,10.81,73828.5,-5.29,-8.75,-8.75,0,*5B
1486731850.86,14034,10.81,73832.0,-5.31,-8.75,-8.59,0,*5B
1486731852.1,14035,10.81,73828.8,-5.31,-8.89,-8.89,0,*54
1486731853.32,14036,10.81,73830.5,-5.29,-8.89,-8.81,0,*56
1486731854.56,14037,10.81,73824.8,-5.31,-8.93,-8.93,0,*56
1486731855.79,14038,10.81,73824.3,-5.31,-8.93,-8.89,0,*52
1486731857.05,14039,10.81,73826.5,-5.31,-8.81,-8.89,0,*50
1486731858.27,14040,10.81,73830.0,-5.33,-8.93,-8.93,0,*54
1486731859.49,14041,10.81,73824.3,-5.33,-8.97,-9.05,0,*5F
1486731860.69,14042,10.81,73820.8,-5.35,-8.93,-8.93,0,*50
1486731861.93,14043,10.81,73820.8,-5.33,-8.75,-8.81,0,*5C
1486731863.12,14044,10.81,73824.3,-5.35,-8.63,-8.55,0,*53
1486731864.31,14045,10.81,73830.8,-5.35,-8.55,-8.41,0,*52
1486731865.53,14046,10.81,73828.8,-5.35,-8.25,-8.03,0,*50
1486731866.72,14047,10.81,73830.0,-5.35,-8.29,-8.25,0,*59
1486731867.94,14048,10.81,73834.3,-5.35,-8.25,-8.11,0,*5D
1486731869.17,14049,10.81,73832.3,-5.33,-8.37,-8.37,0,*5D
1486731870.36,14050,10.81,73830.3,-5.35,-8.63,-8.63,0,*53
1486731871.55,14051,10.81,73830.5,-5.35,-8.55,-8.55,0,*52
1486731872.79,14052,10.81,73830.3,-5.33,-8.55,-8.51,0,*53
1486731874.01,14053,10.81,73828.3,-5.35,-8.51,-8.41,0,*51
1486731875.28,14054,10.81,73828.0,-5.33,-8.51,-8.51,0,*51
1486731876.48,14055,10.81,73832.5,-5.35,-8.55,-8.41,0,*53
1486731877.67,14056,10.81,73832.3,-5.35,-8.29,-8.25,0,*59
1486731878.92,14057,10.81,73838.3,-5.35,-8.11,-7.99,0,*5B
1486731880.14,14058,10.81,73836.3,-5.35,-8.51,-8.37,0,*5B
1486731881.36,14059,10.81,73836.3,-5.35,-8.63,-8.51,0,*5B
1486731882.57,14060,10.81,73832.0,-5.35,-8.85,-8.85,0,*50
1486731883.8,14061,10.81,73834.0,-5.35,-8.81,-8.81,0,*51
1486731885.0,14062,10.81,73834.0,-5.35,-8.93,-8.93,0,*52
1486731886.2,14063,10.81,73834.5,-5.35,-8.93,-8.97,0,*57
1486731887.41,14064,10.81,73838.8,-5.35,-8.85,-8.85,0,*54
1486731888.61,14065,10.81,73840.8,-5.39,-8.85,-8.85,0,*59
1486731889.86,14066,10.81,73844.0,-5.41,-8.59,-8.51,0,*5D
1486731891.05,14067,10.81,73842.0,-5.39,-8.59,-8.55,0,*57
1486731892.24,14068,10.81,73840.0,-5.39,-8.21,-8.17,0,*51
1486731893.47,14069,10.81,73842.5,-5.41,-8.25,-8.21,0,*5E
1486731894.72,14070,10.81,73838.0,-5.41,-8.25,-8.11,0,*55
1486731895.94,14071,10.81,73838.3,-5.39,-8.17,-8.03,0,*59
1486731897.16,14072,10.81,73836.8,-5.35,-8.25,-8.11,0,*54
1486731898.37,14073,10.81,73840.8,-5.35,-8.29,-8.11,0,*59
1486731899.61,14074,10.81,73836.3,-5.35,-8.81,-8.81,0,*55
1486731900.81,14075,10.81,73840.5,-5.35,-8.93,-8.85,0,*53
1486731902.01,14076,10.81,73838.3,-5.39,-8.55,-8.41,0,*5E
1486731903.25,14077,10.81,73836.0,-5.35,-8.03,-7.91,0,*52
1486731904.44,14078,10.81,73838.3,-5.39,-8.21,-8.17,0,*50
1486731905.66,14079,10.81,73834.8,-5.39,-8.81,-8.71,0,*5B
1486731906.85,14080,10.81,73832.0,-5.35,-8.85,-8.67,0,*52
1486731908.04,14081,10.81,73834.5,-5.35,-8.67,-8.63,0,*5B
1486731909.23,14082,10.81,73838.3,-5.39,-8.71,-8.67,0,*57
1486731910.46,14083,10.81,73838.8,-5.39,-8.17,-8.07,0,*50
1486731911.65,14084,10.81,73840.0,-5.39,-8.21,-8.17,0,*53
1486731912.87,14085,10.81,73840.8,-5.39,-7.95,-7.87,0,*54
1486731914.09,14086,10.81,73836.3,-5.35,-7.91,-7.87,0,*5F
1486731915.31,14087,10.81,73838.5,-5.35,-8.25,-8.11,0,*5E
1486731916.5,14088,10.81,73834.0,-5.35,-8.41,-8.29,0,*58
1486731917.73,14089,10.81,73834.5,-5.35,-8.51,-8.41,0,*56
1486731918.95,14090,10.81,73834.5,-5.35,-8.51,-8.37,0,*5F
1486731920.22,14091,10.81,73832.8,-5.33,-8.11,-7.99,0,*57
1486731921.47,14092,10.81,73824.8,-5.33,-8.17,-8.11,0,*5D
1486731922.71,14093,10.81,73828.8,-5.33,-8.17,-7.99,0,*53
1486731923.93,14094,10.81,73824.5,-5.35,-8.17,-8.03,0,*5E
1486731925.17,14095,10.81,73818.3,-5.33,-8.29,-8.11,0,*57
1486731926.42,14096,10.81,73818.8,-5.33,-8.63,-8.51,0,*5E
1486731927.62,14097,10.81,73820.3,-5.35,-8.55,-8.37,0,*5C
1486731928.83,14098,10.81,73820.8,-5.33,-8.67,-8.55,0,*50
1486731930.02,14099,10.81,73818.0,-5.35,-8.75,-8.63,0,*51
1486731931.21,14100,10.81,73818.8,-5.35,-8.67,-8.63,0,*53
1486731932.43,14101,10.81,73816.8,-5.35,-8.85,-8.81,0,*52
1486731933.62,14102,10.81,73816.5,-5.35,-8.75,-8.63,0,*52
1486731934.81,14103,10.81,73812.3,-5.39,-8.97,-8.97,0,*58
1486731936.03,14104,10.81,73814.5,-5.35,-8.85,-8.81,0,*57
1486731937.25,14105,10.81,73820.0,-5.41,-8.75,-8.63,0,*56
1486731938.44,14106,10.81,73820.3,-5.39,-8.59,-8.55,0,*51
1486731939.66,14107,10.81,73830.0,-5.35,-8.51,-8.41,0,*51
1486731940.91,14108,10.81,73832.0,-5.41,-8.51,-8.45,0,*59
1486731942.14,14109,10.81,73838.8,-5.41,-8.45,-8.37,0,*58
1486731943.37,14110,10.81,73832.8,-5.41,-8.55,-8.45,0,*54
1486731944.57,14111,10.81,73836.0,-5.39,-8.55,-8.45,0,*5A
1486731945.79,14112,10.81,73836.5,-5.41,-8.37,-8.33,0,*53
1486731946.98,14113,10.81,73834.5,-5.39,-8.59,-8.55,0,*55
1486731948.17,14114,10.81,73830.8,-5.39,-8.45,-8.41,0,*5A
1486731949.39,14115,10.81,73834.3,-5.39,-8.21,-7.95,0,*5F
1486731950.63,14116,10.81,73832.0,-5.39,-8.03,-7.95,0,*5C
1486731951.82,14117,10.81,73830.5,-5.35,-8.37,-8.29,0,*5E
1486731953.02,14118,10.81,73822.0,-5.35,-8.41,-8.37,0,*5F
1486731954.21,14119,10.81,73826.0,-5.35,-8.29,-8.29,0,*5F
1486731955.43,14120,10.81,73824.8,-5.35,-8.25,-8.11,0,*52
1486731956.62,14121,10.81,73818.8,-5.35,-8.55,-8.55,0,*54
1486731957.82,14122,10.81,73826.0,-5.35,-8.93,-8.85,0,*50
1486731959.02,14123,10.81,73824.0,-5.35,-8.93,-8.93,0,*56
1486731960.21,14124,10.81,73826.0,-5.39,-8.75,-8.67,0,*5E
1486731961.4,14125,10.81,73824.8,-5.39,-8.59,-8.59,0,*5C
1486731962.6,14126,10.81,73822.5,-5.39,-8.85,-8.71,0,*54
1486731963.81,14127,10.81,73824.0,-5.39,-8.85,-8.85,0,*5E
1486731965.02,14128,10.81,73820.3,-5.39,-8.81,-8.71,0,*5E
1486731966.27,14129,10.81,73824.0,-5.39,-8.51,-8.51,0,*50
1486731967.45,14130,10.81,73818.3,-5.39,-8.59,-8.59,0,*58
1486731968.66,14131,10.81,73812.8,-5.39,-8.81,-8.67,0,*51
1486731969.87,14132,10.81,73814.0,-5.39,-8.81,-8.67,0,*52
1486731971.08,14133,10.81,73814.5,-5.39,-8.89,-8.85,0,*57
1486731972.31,14134,10.81,73810.0,-5.41,-8.93,-8.93,0,*53
1486731973.53,14135,10.81,73816.0,-5.41,-8.75,-8.63,0,*55
1486731974.76,14136,10.81,73824.0,-5.41,-8.85,-8.75,0,*5E
1486731975.98,14137,10.81,73820.8,-5.41,-8.85,-8.71,0,*5B
1486731977.21,14138,10.81,73820.0,-5.41,-8.71,-8.63,0,*5C
1486731978.44,14139,10.81,73822.8,-5.41,-8.71,-8.63,0,*5D
1486731979.67,14140,10.81,73824.3,-5.41,-8.85,-8.89,0,*5C
1486731980.95,14141,10.81,73824.3,-5.41,-8.51,-8.51,0,*51
1486731982.15,14142,10.81,73824.3,-5.43,-8.45,-8.37,0,*55
1486731983.35,14143,10.81,73830.0,-5.43,-8.37,-8.25,0,*52
1486731984.6,14144,10.81,73832.8,-5.43,-8.11,-7.99,0,*59
1486731985.82,14145,10.81,73824.5,-5.41,-8.45,-8.33,0,*54
1486731987.05,14146,10.81,73828.3,-5.41,-8.37,-8.37,0,*56
1486731988.28,14147,10.81,73828.8,-5.41,-8.71,-8.63,0,*54
1486731989.53,14148,10.81,73830.3,-5.41,-8.63,-8.51,0,*59
1486731990.75,14149,10.81,73832.0,-5.41,-8.71,-8.63,0,*5A
1486731991.98,14150,10.81,73830.8,-5.41,-8.37,-8.29,0,*5E
1486731993.18,14151,10.81,73832.8,-5.39,-8.45,-8.37,0,*5A
1486731994.4,14152,10.81,73836.8,-5.41,-8.59,-8.59,0,*53
1486731995.59,14153,10.81,73842.8,-5.39,-8.59,-8.59,0,*5D
1486731996.81,14154,10.81,73836.0,-5.41,-8.33,-8.25,0,*52
1486731997.99,14155,10.81,73832.0,-5.39,-8.29,-8.33,0,*50
1486731999.21,14156,10.81,73834.8,-5.41,-8.45,-8.33,0,*56
1486732000.44,14157,10.81,73834.3,-5.41,-8.63,-8.59,0,*5F
1486732001.66,14158,10.81,73836.0,-5.41,-8.33,-8.21,0,*5A
1486732002.85,14159,10.81,73830.0,-5.39,-8.21,-8.21,0,*57
1486732004.05,14160,10.81,73830.5,-5.39,-8.55,-8.41,0,*58
1486732005.25,14161,10.81,73824.5,-5.39,-8.89,-8.97,0,*53
1486732006.48,14162,10.81,73826.0,-5.41,-8.93,-8.93,0,*50
1486732007.71,14163,10.81,73828.5,-5.41,-9.05,-9.01,0,*55
1486732008.94,14164,10.81,73830.3,-5.41,-8.85,-8.71,0,*5D
1486732010.17,14165,10.81,73832.5,-5.41,-8.89,-8.89,0,*57
1486732011.39,14166,10.81,73838.3,-5.41,-8.75,-8.71,0,*50
1486732012.62,14167,10.81,73832.3,-5.41,-8.71,-8.63,0,*56
1486732013.87,14168,10.81,73838.3,-5.41,-8.63,-8.51,0,*5B
1486732015.09,14169,10.81,73834.5,-5.41,-8.63,-8.63,0,*5B
1486732016.32,14170,10.81,73834.0,-5.41,-8.71,-8.59,0,*59
1486732017.52,14171,10.81,73838.3,-5.43,-8.71,-8.59,0,*5A
1486732018.71,14172,10.81,73828.3,-5.43,-8.63,-8.59,0,*5A
1486732019.96,14173,10.81,73832.0,-5.41,-8.59,-8.51,0,*58
1486732021.19,14174,10.81,73832.0,-5.41,-8.71,-8.63,0,*54
1486732022.41,14175,10.81,73826.8,-5.41,-8.85,-8.75,0,*59
1486732023.64,14176,10.81,73828.0,-5.41,-8.63,-8.63,0,*55
1486732024.86,14177,10.81,73834.0,-5.41,-8.85,-8.71,0,*5F
1486732026.08,14178,10.81,73830.3,-5.41,-8.75,-8.71,0,*5F
1486732027.31,14179,10.81,73834.8,-5.41,-8.71,-8.63,0,*59
1486732028.54,14180,10.81,73834.5,-5.45,-8.55,-8.41,0,*5D
1486732029.76,14181,10.81,73832.0,-5.43,-8.59,-8.51,0,*57
1486732030.96,14182,10.81,73838.8,-5.43,-8.71,-8.59,0,*56
1486732032.15,14183,10.81,73838.8,-5.43,-8.75,-8.71,0,*59
1486732033.35,14184,10.81,73838.8,-5.43,-8.63,-8.59,0,*53
1486732034.55,14185,10.81,73836.8,-5.43,-8.75,-8.89,0,*58
1486732035.75,14186,10.81,73836.8,-5.43,-8.71,-8.63,0,*5B
1486732036.99,14187,10.81,73842.0,-5.45,-8.67,-8.51,0,*5A
1486732038.19,14188,10.81,73842.3,-5.43,-8.71,-8.59,0,*5C
1486732039.39,14189,10.81,73844.3,-5.43,-8.63,-8.59,0,*5E
1486732040.61,14190,10.81,73840.5,-5.41,-8.71,-8.75,0,*59
1486732041.85,14191,10.81,73838.3,-5.41,-8.89,-8.89,0,*5C
1486732043.07,14192,10.81,73844.3,-5.41,-8.71,-8.63,0,*5C
1486732044.3,14193,10.81,73844.8,-5.41,-8.63,-8.59,0,*57
1486732045.52,14194,10.81,73848.0,-5.41,-8.71,-8.63,0,*5A
1486732046.75,14195,10.81,73842.5,-5.41,-8.71,-8.63,0,*5B
1486732047.97,14196,10.81,73840.5,-5.43,-8.59,-8.51,0,*51
1486732049.16,14197,10.81,73842.5,-5.43,-8.75,-8.63,0,*5F
1486732050.36,14198,10.81,73838.0,-5.43,-8.75,-8.71,0,*53
1486732051.58,14199,10.81,73832.0,-5.41,-8.59,-8.59,0,*54
1486732052.78,14200,10.81,73830.5,-5.43,-8.71,-8.63,0,*56
1486732054.0,14201,10.81,73830.0,-5.43,-8.89,-8.81,0,*5C
1486732055.23,14202,10.81,73830.3,-5.41,-8.93,-8.75,0,*5D
1486732056.43,14203,10.81,73828.8,-5.43,-8.85,-8.89,0,*5A
1486732057.64,14204,10.81,73830.5,-5.43,-8.85,-8.89,0,*5D
1486732058.85,14205,10.81,73828.5,-5.43,-8.89,-8.89,0,*50
1486732060.07,14206,10.81,73832.0,-5.45,-8.29,-8.17,0,*58
1486732061.26,14207,10.81,73834.5,-5.43,-8.25,-8.25,0,*52
1486732062.46,14208,10.81,73832.5,-5.43,-8.59,-8.45,0,*50
1486732063.67,14209,10.81,73832.0,-5.43,-8.45,-8.37,0,*59
1486732064.89,14210,10.81,73834.0,-5.43,-8.51,-8.33,0,*50
1486732066.09,14211,10.81,73828.5,-5.43,-8.85,-8.75,0,*5A
1486732067.28,14212,10.81,73832.8,-5.43,-8.63,-8.59,0,*5F
1486732068.48,14213,10.81,73832.0,-5.43,-8.59,-8.59,0,*57
1486732069.7,14214,10.81,73834.8,-5.43,-8.71,-8.51,0,*52
1486732070.9,14215,10.81,73840.0,-5.43,-8.59,-8.59,0,*51
1486732072.09,14216,10.81,73842.5,-5.43,-8.59,-8.45,0,*5F
1486732073.31,14217,10.81,73836.0,-5.41,-8.59,-8.59,0,*51
1486732074.56,14218,10.81,73842.8,-5.41,-8.59,-8.51,0,*56
1486732075.77,14219,10.81,73840.8,-5.41,-8.33,-8.33,0,*5F
1486732077.01,14220,10.81,73842.5,-5.41,-8.45,-8.37,0,*50
1486732078.23,14221,10.81,73842.0,-5.41,-8.75,-8.63,0,*53
1486732079.45,14222,10.81,73842.0,-5.41,-8.75,-8.75,0,*57
1486732080.67,14223,10.81,73836.3,-5.41,-8.71,-8.71,0,*56
1486732081.87,14224,10.81,73838.5,-5.43,-8.75,-8.89,0,*50
1486732083.07,14225,10.81,73836.0,-5.43,-8.75,-8.71,0,*56
1486732084.27,14226,10.81,73836.3,-5.43,-8.71,-8.63,0,*52
1486732085.46,14227,10.81,73840.8,-5.43,-8.63,-8.63,0,*50
1486732086.68,14228,10.81,73838.0,-5.45,-8.67,-8.63,0,*5D
1486732087.88,14229,10.81,73840.0,-5.43,-8.75,-8.75,0,*5E
1486732089.12,14230,10.81,73844.8,-5.45,-8.81,-8.75,0,*5B
1486732090.31,14231,10.81,73846.5,-5.43,-8.75,-8.71,0,*53
1486732091.54,14232,10.81,73844.3,-5.45,-8.63,-8.63,0,*52
1486732092.73,14233,10.81,73842.0,-5.43,-8.75,-8.71,0,*51
1486732093.98,14234,10.81,73838.5,-5.45,-8.51,-8.41,0,*55
1486732095.2,14235,10.81,73834.0,-5.43,-8.51,-8.33,0,*57
1486732096.4,14236,10.81,73836.0,-5.43,-8.17,-8.17,0,*50
1486732097.6,14237,10.81,73836.0,-5.43,-8.25,-8.21,0,*55
1486732098.85,14238,10.81,73832.8,-5.43,-8.07,-7.99,0,*56
1486732100.04,14239,10.81,73832.5,-5.43,-8.37,-8.33,0,*5B
1486732101.24,14240,10.81,73830.5,-5.43,-8.37,-8.21,0,*56
1486732102.44,14241,10.81,73834.5,-5.43,-8.45,-8.33,0,*51
1486732103.64,14242,10.81,73836.8,-5.43,-8.37,-8.21,0,*54